N480AV HKEL-HKJK

Flight info

Callsign N480AV
Flight time 0h 50m
Altitude 19000
Route KIDUM1Y KIDUM DCT IBKAS IBKAS1A
Aircraft DH8B/M-SDFGR/S

Departure

Time 2026-04-26 08:00
Airport Eldoret International Airport (HKEL)

Arrival

Time 2026-04-26 08:50
Airport Jomo Kenyatta International Airport (HKJK)
Time Latitude Longitude Altitude Speed Heading
2026-04-26 07:41 0.40388 35.22329 6852 ft 0 kts 79°
2026-04-26 07:55 0.40388 35.22330 6852 ft 0 kts 79°
2026-04-26 07:55 0.40391 35.22344 6852 ft 3 kts 79°
2026-04-26 07:55 0.40381 35.22366 6853 ft 4 kts 163°
2026-04-26 07:56 0.40356 35.22335 6853 ft 9 kts 260°
2026-04-26 07:56 0.40316 35.22279 6853 ft 9 kts 212°
2026-04-26 07:56 0.40255 35.22240 6854 ft 11 kts 213°
2026-04-26 07:56 0.40212 35.22211 6855 ft 0 kts 213°
2026-04-26 07:57 0.40211 35.22210 6855 ft 1 kts 213°
2026-04-26 07:57 0.40184 35.22193 6856 ft 7 kts 210°
2026-04-26 07:57 0.40129 35.22192 6857 ft 5 kts 163°
2026-04-26 07:58 0.40113 35.22234 6858 ft 9 kts 78°
2026-04-26 07:58 0.40130 35.22318 6860 ft 22 kts 78°
2026-04-26 07:58 0.40201 35.22674 6865 ft 81 kts 78°
2026-04-26 07:58 0.40338 35.23365 6899 ft 116 kts 78°
2026-04-26 07:59 0.40510 35.24184 7129 ft 126 kts 77°
2026-04-26 07:59 0.40708 35.25039 7452 ft 132 kts 75°
2026-04-26 07:59 0.40923 35.25923 7398 ft 120 kts 75°
2026-04-26 07:59 0.41116 35.26665 7351 ft 113 kts 70°
2026-04-26 08:00 0.41356 35.27481 7614 ft 130 kts 75°
2026-04-26 08:00 0.41622 35.28374 8018 ft 138 kts 72°
2026-04-26 08:00 0.41819 35.29203 8729 ft 118 kts 84°
2026-04-26 08:00 0.41764 35.30095 8984 ft 140 kts 113°
2026-04-26 08:01 0.41035 35.30743 9416 ft 150 kts 152°
2026-04-26 08:01 0.39974 35.31109 9708 ft 168 kts 164°
2026-04-26 08:01 0.38817 35.31366 10130 ft 176 kts 167°
2026-04-26 08:01 0.37564 35.31608 10534 ft 183 kts 163°
2026-04-26 08:02 0.36361 35.31992 10997 ft 186 kts 156°
2026-04-26 08:02 0.35160 35.32515 11420 ft 190 kts 150°
2026-04-26 08:02 0.33996 35.33125 11857 ft 183 kts 147°
2026-04-26 08:02 0.32966 35.33654 12562 ft 158 kts 151°
2026-04-26 08:03 0.31904 35.34088 12752 ft 170 kts 152°
2026-04-26 08:03 0.30840 35.34524 13114 ft 167 kts 156°
2026-04-26 08:03 0.29849 35.35009 13406 ft 165 kts 150°
2026-04-26 08:03 0.28730 35.35398 13648 ft 173 kts 157°
2026-04-26 08:04 0.27608 35.35764 13989 ft 170 kts 157°
2026-04-26 08:04 0.26509 35.36163 14315 ft 165 kts 147°
2026-04-26 08:04 0.25449 35.36744 14473 ft 179 kts 144°
2026-04-26 08:04 0.24375 35.37355 14981 ft 174 kts 147°
2026-04-26 08:05 0.23306 35.37912 15334 ft 178 kts 148°
2026-04-26 08:05 0.22159 35.38503 15585 ft 189 kts 148°
2026-04-26 08:05 0.20953 35.39104 15903 ft 194 kts 149°
2026-04-26 08:05 0.19861 35.39717 16575 ft 174 kts 144°
2026-04-26 08:06 0.18789 35.40366 16827 ft 183 kts 146°
2026-04-26 08:06 0.17720 35.40994 17246 ft 178 kts 141°
2026-04-26 08:06 0.16642 35.41671 17544 ft 185 kts 149°
2026-04-26 08:06 0.15524 35.42225 18043 ft 174 kts 148°
2026-04-26 08:07 0.14423 35.42755 18320 ft 179 kts 149°
2026-04-26 08:07 0.13270 35.43351 18476 ft 190 kts 146°
2026-04-26 08:07 0.12114 35.44018 18789 ft 191 kts 146°
2026-04-26 08:07 0.10989 35.44657 19232 ft 184 kts 146°
2026-04-26 08:08 0.09838 35.45307 19378 ft 196 kts 148°
2026-04-26 08:08 0.08583 35.45978 19513 ft 207 kts 147°
2026-04-26 08:08 0.07359 35.46704 19810 ft 208 kts 144°
2026-04-26 08:08 0.06067 35.47489 19736 ft 230 kts 150°
2026-04-26 08:09 0.04562 35.48154 19831 ft 241 kts 154°
2026-04-26 08:09 0.02974 35.48830 19820 ft 255 kts 153°
2026-04-26 08:09 0.01342 35.49594 19879 ft 259 kts 150°
2026-04-26 08:09 -0.00301 35.50443 19653 ft 274 kts 151°
2026-04-26 08:10 -0.02040 35.51274 19572 ft 271 kts 151°
2026-04-26 08:10 -0.03701 35.52105 19417 ft 264 kts 150°
2026-04-26 08:10 -0.05293 35.52919 19338 ft 253 kts 150°
2026-04-26 08:10 -0.06826 35.53715 19325 ft 240 kts 147°
2026-04-26 08:11 -0.08283 35.54505 19156 ft 237 kts 149°
2026-04-26 08:11 -0.09721 35.55281 19101 ft 232 kts 152°
2026-04-26 08:11 -0.11260 35.55832 19101 ft 232 kts 154°
2026-04-26 08:11 -0.12752 35.56479 19191 ft 234 kts 153°
2026-04-26 08:12 -0.14293 35.57127 19353 ft 239 kts 154°
2026-04-26 08:12 -0.15848 35.57768 19408 ft 246 kts 154°
2026-04-26 08:12 -0.17427 35.58386 19645 ft 241 kts 155°
2026-04-26 08:12 -0.19007 35.59007 19636 ft 248 kts 155°
2026-04-26 08:13 -0.20644 35.59653 19649 ft 253 kts 155°
2026-04-26 08:13 -0.22223 35.60405 19723 ft 252 kts 148°
2026-04-26 08:13 -0.23797 35.61286 19606 ft 262 kts 148°
2026-04-26 08:13 -0.25398 35.62183 19526 ft 268 kts 148°
2026-04-26 08:14 -0.27032 35.63040 19430 ft 258 kts 149°
2026-04-26 08:14 -0.28568 35.63848 19374 ft 237 kts 149°
2026-04-26 08:14 -0.29997 35.64563 19386 ft 225 kts 151°
2026-04-26 08:14 -0.31350 35.65214 19557 ft 212 kts 150°
2026-04-26 08:15 -0.32592 35.66061 19396 ft 216 kts 135°
2026-04-26 08:15 -0.33701 35.67068 19319 ft 219 kts 132°
2026-04-26 08:15 -0.34773 35.68206 19393 ft 229 kts 129°
2026-04-26 08:15 -0.35955 35.69355 19407 ft 242 kts 134°
2026-04-26 08:16 -0.37200 35.70514 19445 ft 250 kts 134°
2026-04-26 08:16 -0.38524 35.71708 19384 ft 262 kts 134°
2026-04-26 08:16 -0.39875 35.72953 19460 ft 265 kts 135°
2026-04-26 08:16 -0.41289 35.74128 19423 ft 260 kts 137°
2026-04-26 08:17 -0.42653 35.75295 19441 ft 253 kts 135°
2026-04-26 08:17 -0.43938 35.76453 19373 ft 250 kts 135°
2026-04-26 08:17 -0.45242 35.77625 19305 ft 248 kts 134°
2026-04-26 08:17 -0.46501 35.78746 19398 ft 239 kts 135°
2026-04-26 08:18 -0.47742 35.79831 19393 ft 235 kts 135°
2026-04-26 08:18 -0.48929 35.80936 19375 ft 233 kts 133°
2026-04-26 08:18 -0.50107 35.82042 19367 ft 230 kts 133°
2026-04-26 08:18 -0.51326 35.83085 19352 ft 229 kts 137°
2026-04-26 08:19 -0.52578 35.84020 19492 ft 220 kts 140°
2026-04-26 08:19 -0.53068 35.84375 19576 ft 215 kts 140°
2026-04-26 08:19 -0.53665 35.84808 19671 ft 209 kts 140°
2026-04-26 08:19 -0.54020 35.85067 19719 ft 206 kts 140°
2026-04-26 08:20 -0.54608 35.85500 19787 ft 203 kts 139°
2026-04-26 08:20 -0.55717 35.86329 19880 ft 198 kts 139°
2026-04-26 08:20 -0.56817 35.87170 19898 ft 197 kts 137°
2026-04-26 08:21 -0.57879 35.88009 19927 ft 196 kts 137°
2026-04-26 08:21 -0.58939 35.88841 19951 ft 195 kts 136°
2026-04-26 08:21 -0.59969 35.89727 19958 ft 194 kts 135°
2026-04-26 08:21 -0.61042 35.90528 20080 ft 189 kts 140°
2026-04-26 08:22 -0.62054 35.91401 20031 ft 200 kts 132°
2026-04-26 08:22 -0.63116 35.92371 20069 ft 217 kts 135°
2026-04-26 08:22 -0.64341 35.93450 19803 ft 246 kts 136°
2026-04-26 08:22 -0.65677 35.94570 19767 ft 260 kts 137°
2026-04-26 08:23 -0.67137 35.95748 19491 ft 281 kts 138°
2026-04-26 08:23 -0.68710 35.96942 19608 ft 283 kts 141°
2026-04-26 08:23 -0.70295 35.98090 19880 ft 278 kts 141°
2026-04-26 08:23 -0.71883 35.99233 19859 ft 283 kts 139°
2026-04-26 08:24 -0.72891 36.00067 19826 ft 283 kts 135°
2026-04-26 08:24 -0.73954 36.00998 19645 ft 287 kts 135°
2026-04-26 08:24 -0.75413 36.02296 19244 ft 277 kts 135°
2026-04-26 08:25 -0.76871 36.03529 18629 ft 273 kts 136°
2026-04-26 08:25 -0.78276 36.04706 18454 ft 252 kts 137°
2026-04-26 08:25 -0.79612 36.05795 18098 ft 243 kts 136°
2026-04-26 08:25 -0.80878 36.06842 17771 ft 235 kts 137°
2026-04-26 08:26 -0.82157 36.07865 17225 ft 239 kts 139°
2026-04-26 08:26 -0.83491 36.08861 16636 ft 242 kts 139°
2026-04-26 08:26 -0.84780 36.09901 16247 ft 234 kts 137°
2026-04-26 08:26 -0.86055 36.10918 15684 ft 237 kts 137°
2026-04-26 08:27 -0.87349 36.11984 14995 ft 244 kts 138°
2026-04-26 08:27 -0.88628 36.13065 14399 ft 243 kts 133°
2026-04-26 08:27 -0.89818 36.14210 14134 ft 228 kts 136°
2026-04-26 08:27 -0.90979 36.15233 13936 ft 212 kts 132°
2026-04-26 08:28 -0.91969 36.16247 13681 ft 203 kts 131°
2026-04-26 08:28 -0.92904 36.17249 13512 ft 190 kts 127°
2026-04-26 08:28 -0.93767 36.18191 13367 ft 181 kts 134°
2026-04-26 08:28 -0.94789 36.19145 13048 ft 219 kts 133°
2026-04-26 08:29 -0.95969 36.20254 12782 ft 248 kts 134°
2026-04-26 08:29 -0.97174 36.21453 12554 ft 236 kts 130°
2026-04-26 08:29 -0.98200 36.22651 12385 ft 217 kts 128°
2026-04-26 08:29 -0.99182 36.23752 12074 ft 209 kts 130°
2026-04-26 08:30 -1.00162 36.24784 11734 ft 204 kts 131°
2026-04-26 08:30 -1.01150 36.25773 11512 ft 196 kts 133°
2026-04-26 08:30 -1.02111 36.26722 11390 ft 196 kts 134°
2026-04-26 08:30 -1.03205 36.27596 11311 ft 203 kts 144°
2026-04-26 08:31 -1.04411 36.28375 11065 ft 216 kts 143°
2026-04-26 08:31 -1.05698 36.29246 10843 ft 225 kts 143°
2026-04-26 08:31 -1.06971 36.30129 10862 ft 220 kts 141°
2026-04-26 08:31 -1.08143 36.31089 10811 ft 219 kts 134°
2026-04-26 08:32 -1.09220 36.32190 10721 ft 220 kts 131°
2026-04-26 08:32 -1.10286 36.33294 10683 ft 219 kts 132°
2026-04-26 08:32 -1.11388 36.34372 10494 ft 226 kts 134°
2026-04-26 08:32 -1.12521 36.35503 10244 ft 233 kts 133°
2026-04-26 08:33 -1.13666 36.36644 10164 ft 231 kts 134°
2026-04-26 08:33 -1.14815 36.37697 10324 ft 219 kts 137°
2026-04-26 08:33 -1.15979 36.38657 10336 ft 216 kts 139°
2026-04-26 08:33 -1.17150 36.39602 10327 ft 214 kts 138°
2026-04-26 08:34 -1.18300 36.40519 10312 ft 213 kts 140°
2026-04-26 08:34 -1.19465 36.41458 10272 ft 213 kts 137°
2026-04-26 08:34 -1.20560 36.42457 10207 ft 213 kts 133°
2026-04-26 08:34 -1.21568 36.43555 10165 ft 213 kts 128°
2026-04-26 08:35 -1.22525 36.44677 10131 ft 212 kts 129°
2026-04-26 08:35 -1.23549 36.45719 10133 ft 211 kts 137°
2026-04-26 08:35 -1.24718 36.46631 10106 ft 212 kts 141°
2026-04-26 08:35 -1.25922 36.47506 9930 ft 219 kts 142°
2026-04-26 08:36 -1.27215 36.48374 9720 ft 227 kts 146°
2026-04-26 08:36 -1.28550 36.49254 9641 ft 225 kts 141°
2026-04-26 08:36 -1.29693 36.50236 9814 ft 212 kts 134°
2026-04-26 08:36 -1.30777 36.51288 9615 ft 220 kts 133°
2026-04-26 08:37 -1.31874 36.52380 9463 ft 224 kts 134°
2026-04-26 08:37 -1.33020 36.53491 9233 ft 229 kts 135°
2026-04-26 08:37 -1.34197 36.54519 9262 ft 220 kts 141°
2026-04-26 08:37 -1.34433 36.54693 9274 ft 217 kts 142°
2026-04-26 08:38 -1.35331 36.55400 9370 ft 205 kts 136°
2026-04-26 08:38 -1.36349 36.56406 9270 ft 203 kts 134°
2026-04-26 08:38 -1.37319 36.57383 9398 ft 191 kts 131°
2026-04-26 08:38 -1.38207 36.58345 9413 ft 186 kts 130°
2026-04-26 08:39 -1.39048 36.59296 9444 ft 180 kts 128°
2026-04-26 08:39 -1.39814 36.60257 9480 ft 174 kts 124°
2026-04-26 08:39 -1.40507 36.61259 9451 ft 174 kts 121°
2026-04-26 08:39 -1.41173 36.62283 9296 ft 182 kts 122°
2026-04-26 08:40 -1.41868 36.63382 9175 ft 186 kts 121°
2026-04-26 08:40 -1.42565 36.64466 9149 ft 184 kts 121°
2026-04-26 08:40 -1.43229 36.65554 9100 ft 184 kts 119°
2026-04-26 08:40 -1.43946 36.66637 9020 ft 185 kts 122°
2026-04-26 08:41 -1.44637 36.67717 8994 ft 184 kts 121°
2026-04-26 08:41 -1.45327 36.68786 8865 ft 183 kts 122°
2026-04-26 08:41 -1.45969 36.69892 8488 ft 184 kts 117°
2026-04-26 08:41 -1.46537 36.70977 8402 ft 167 kts 118°
2026-04-26 08:42 -1.46977 36.71980 8298 ft 153 kts 101°
2026-04-26 08:42 -1.46786 36.72967 8112 ft 144 kts 51°
2026-04-26 08:42 -1.46013 36.73564 7870 ft 142 kts 31°
2026-04-26 08:42 -1.45276 36.74206 7613 ft 138 kts 51°
2026-04-26 08:43 -1.44665 36.74893 7503 ft 127 kts 51°
2026-04-26 08:43 -1.44180 36.75602 7432 ft 119 kts 58°
2026-04-26 08:43 -1.43744 36.76308 7534 ft 120 kts 60°
2026-04-26 08:43 -1.43337 36.77025 7775 ft 114 kts 63°
2026-04-26 08:44 -1.42982 36.77626 8081 ft 94 kts 58°
2026-04-26 08:44 -1.42609 36.78189 8305 ft 97 kts 62°
2026-04-26 08:44 -1.42267 36.78800 8467 ft 102 kts 61°
2026-04-26 08:44 -1.41889 36.79393 8581 ft 101 kts 57°
2026-04-26 08:45 -1.41445 36.79933 8576 ft 101 kts 52°
2026-04-26 08:45 -1.40985 36.80502 8440 ft 106 kts 52°
2026-04-26 08:45 -1.40508 36.81088 8284 ft 110 kts 52°
2026-04-26 08:45 -1.40025 36.81675 8186 ft 108 kts 53°
2026-04-26 08:46 -1.39582 36.82301 8011 ft 113 kts 57°
2026-04-26 08:46 -1.39129 36.82954 7857 ft 115 kts 56°
2026-04-26 08:46 -1.38631 36.83627 7623 ft 122 kts 52°
2026-04-26 08:46 -1.38102 36.84280 7464 ft 121 kts 52°
2026-04-26 08:47 -1.37572 36.84961 7180 ft 125 kts 57°
2026-04-26 08:47 -1.37083 36.85658 6904 ft 122 kts 56°
2026-04-26 08:47 -1.36601 36.86354 6617 ft 121 kts 55°
2026-04-26 08:47 -1.36104 36.87012 6409 ft 115 kts 54°
2026-04-26 08:48 -1.35627 36.87631 6220 ft 110 kts 54°
2026-04-26 08:48 -1.35186 36.88264 6149 ft 113 kts 57°
2026-04-26 08:48 -1.34727 36.88916 6012 ft 116 kts 53°
2026-04-26 08:48 -1.34250 36.89573 5825 ft 114 kts 56°
2026-04-26 08:49 -1.33807 36.90184 5670 ft 105 kts 54°
2026-04-26 08:49 -1.33361 36.90807 5571 ft 113 kts 56°
2026-04-26 08:49 -1.32894 36.91448 5407 ft 114 kts 55°
2026-04-26 08:49 -1.32442 36.92067 5317 ft 97 kts 55°
2026-04-26 08:50 -1.32127 36.92504 5316 ft 58 kts 53°
2026-04-26 08:50 -1.31978 36.92704 5316 ft 14 kts 55°
2026-04-26 08:50 -1.31961 36.92802 5316 ft 15 kts 124°
2026-04-26 08:50 -1.32043 36.92865 5315 ft 13 kts 144°
2026-04-26 08:51 -1.32225 36.92928 5314 ft 16 kts 235°
2026-04-26 08:51 -1.32295 36.92828 5316 ft 18 kts 234°
2026-04-26 08:51 -1.32370 36.92722 5315 ft 18 kts 234°
2026-04-26 08:52 -1.32452 36.92612 5316 ft 21 kts 233°
2026-04-26 08:52 -1.32542 36.92488 5316 ft 22 kts 234°
2026-04-26 08:52 -1.32622 36.92379 5316 ft 17 kts 234°
2026-04-26 08:52 -1.32719 36.92375 5315 ft 15 kts 144°
2026-04-26 08:53 -1.32764 36.92462 5314 ft 15 kts 78°
2026-04-26 08:53 -1.32739 36.92536 5315 ft 10 kts 354°
2026-04-26 08:53 -1.32710 36.92542 5315 ft 0 kts
2026-04-26 08:53 -1.32705 36.92542 5315 ft 0 kts